Find Starlink 1167

NORAD ID: 45071 Int'l Des: 2020-006 Owner: SPXS Country: US Constellation: starlink operational
LEOCIRCULAR

实时位置

正在加载3D地球...

关于 Starlink 1167

正在加载描述...

即将过境

Passes for default location (London). Set your location on the main map for personalized predictions.

高度历史

Loading altitude history...

两行轨道根数

1 45071U 20006AD 26132.81466079 .00031751 00000-0 92620-3 0 9999
2 45071 53.1572 319.0925 0002478 183.0527 177.0461 15.35094785346701
Epoch: May 12, 2026 • Age: 5 hours

当前状态

高度 467.4 km
速度 7.64 km/s
星下点 52.70°N, 156.37°E
发射日期 Jan 29, 2020
运行时间 6.2 years
类型 internet

技术详情

分类 Payload
质量 260.00 kg
干质量 248.00 kg
总质量 260.00 kg
长度 0.20 m
直径 2.80 m
跨度 9.00 m
形状 Box + pan
制造商 SPXS
平台类型 Starlink
阶段状态 In Orbit
所有者/国家 SPXS/US

Most Searched